{"data":{"norad_id":40613,"epoch":"2026-05-25T02:01:47.672256Z","epoch_age_seconds":67595,"freshness":"FRESH","line1":"1 40613U 15022A   26145.08457954 -.00000011  00000+0  00000+0 0  9995","line2":"2 40613   0.0207  75.8602 0002631 340.7636 215.8510  1.00270846 40581","mean_motion":1.00270846,"eccentricity":0.0002631,"inclination_deg":0.0207,"raan_deg":75.8602,"arg_perigee_deg":340.7636,"mean_anomaly_deg":215.851,"bstar":0,"rev_number":4058,"period_min":1436.1103525545,"perigee_km":35775.764588795,"apogee_km":35797.951809268,"semimajor_km":42164.995199032,"source":"CELESTRAK","updated_at":"2026-05-25T13:38:13.987893Z"}}